Temp
23 21 20 21 22 24 25 24 22 23 24 23 20 19 21 21 20 19 18 18 18 18 21 24 24 24 23 23 22 21 19 19 18 17 16 16 15 15 15 15 15 15 15 15
22 20 21 24 25 24 24 23 22 24 23 23 21 20 20 21 20 21 20 19 19 19 18 21 23 23 23 23 22 21 20 19 18 18 17 16 16 16 16 16 16 16 16 15
20 23 25 25 24 24 23 23 23 23 22 21 22 20 21 21 22 21 20 21 20 19 20 18 20 22 23 22 22 21 20 20 19 18 17 17 16 16 16 16 16 16 16 16
22 23 24 24 24 24 23 23 24 23 20 21 22 20 20 23 22 22 20 19 20 20 20 20 20 20 22 22 22 22 21 20 19 19 18 17 17 16 17 17 17 17 17 16
22 23 23 23 23 24 22 23 23 23 21 20 21 20 20 22 24 22 20 19 20 19 20 19 20 21 23 23 22 21 21 20 20 19 18 18 17 17 17 17 17 17 17 17
21 23 23 22 23 23 22 22 21 21 18 18 20 21 21 22 23 22 21 20 20 20 19 19 21 22 22 23 22 21 21 20 20 19 19 18 18 18 17 17 17 17 17 17
22 21 22 23 22 22 22 18 18 20 19 19 21 21 22 25 24 24 23 21 20 19 19 18 18 19 21 22 22 22 21 20 20 19 19 18 18 18 18 18 18 17 17 17
19 21 20 21 21 20 19 18 18 23 21 21 22 22 24 24 24 24 23 22 20 19 19 19 18 20 21 22 22 22 21 21 20 19 19 19 19 18 18 18 18 18 17 17
21 21 21 20 20 22 21 20 20 21 20 20 21 22 24 27 26 23 22 21 20 19 18 19 18 20 21 21 22 22 21 21 21 20 20 19 19 19 19 19 19 18 18 18
22 21 21 20 21 21 21 20 20 18 21 22 21 22 25 26 26 23 21 21 20 19 19 18 18 20 22 23 23 22 22 21 21 20 20 20 20 20 20 19 19 19 19 18
21 20 19 20 18 18 18 19 19 18 17 19 20 22 24 23 23 23 21 21 20 19 19 18 18 21 23 22 22 22 21 21 20 20 20 20 20 20 20 20 20 20 19 19
20 18 17 18 19 18 17 18 18 16 21 17 17 20 23 25 22 22 21 21 20 20 19 18 18 20 21 22 22 21 21 21 21 21 21 21 21 20 20 20 21 20 19 19
21 18 18 18 19 19 20 19 19 18 17 18 17 20 24 23 25 22 22 21 21 20 19 18 17 18 19 21 21 21 22 21 22 21 21 21 21 20 21 21 20 20 19 19
20 17 17 18 20 18 19 19 18 19 16 20 19 20 23 23 25 25 22 21 20 20 20 19 18 18 20 21 22 22 22 22 22 21 21 21 21 21 21 21 20 20 19 19
18 17 18 18 18 20 20 20 18 18 21 19 23 22 23 25 23 25 24 21 21 20 20 20 20 19 20 20 21 22 23 22 22 22 21 22 22 22 21 21 20 20 19 18
16 17 18 19 19 19 20 20 19 19 21 21 22 22 22 21 20 21 21 22 21 21 22 22 21 20 20 21 21 22 22 23 22 22 22 22 22 21 21 21 20 20 19 18
17 16 17 18 20 19 19 21 21 20 21 22 19 22 23 23 22 25 24 21 22 21 21 20 21 21 22 22 22 21 22 22 22 22 22 22 22 21 21 20 20 20 19 18
16 15 15 15 19 18 22 22 21 22 23 22 23 23 22 22 23 23 20 22 21 21 21 21 22 22 23 23 23 23 22 22 22 21 21 22 21 21 21 20 20 20 18 18
17 15 13 16 15 20 21 21 23 21 20 21 21 22 23 23 20 20 21 20 21 21 20 22 23 23 23 23 25 23 22 21 20 20 20 21 21 21 20 20 20 19 18 17
15 17 17 12 14 15 21 22 23 22 21 22 21 22 22 21 19 22 22 22 20 19 22 22 24 24 23 23 23 22 21 20 19 20 20 21 21 21 20 20 19 18 17 17
17 14 16 17 17 15 18 20 23 20 20 24 21 20 20 19 21 22 21 20 19 21 23 24 22 22 25 24 23 21 21 19 21 21 21 21 21 21 21 19 18 18 16 15
15 12 15 16 14 16 21 21 22 20 20 24 24 24 23 22 21 20 20 20 20 20 20 22 21 21 23 22 22 21 20 23 21 21 20 20 21 20 19 18 17 16 15 14
16 18 15 16 19 20 20 19 21 20 20 22 21 24 24 23 23 23 21 20 19 19 19 21 20 20 22 22 21 20 20 21 21 20 19 20 20 19 19 17 16 15 14 13
16 18 16 17 19 18 20 22 22 19 20 21 19 21 21 20 20 21 19 18 18 18 18 20 19 17 17 20 20 20 20 20 20 19 18 18 18 17 17 16 15 14 13 12
8 8 14 18 19 18 18 19 21 21 19 18 18 19 20 19 18 18 18 17 17 17 19 19 18 17 18 19 19 20 20 19 19 18 17 17 17 16 15 15 15 14 14 13
11 10 10 11 14 18 17 18 18 18 18 19 19 20 18 18 18 18 17 18 17 17 19 18 18 18 18 18 19 19 19 19 18 15 15 16 15 15 15 14 13 12 12 12
Height
822 838 846 836 830 825 824 831 837 823 815 823 828 825 812 805 806 808 807 805 806 804 799 802 806 811 816 820 823 826 830 834 838 841 843 845 845 848 849 849 850 850 850 851
835 844 828 818 818 822 826 832 837 820 818 820 822 818 804 797 795 793 797 798 797 799 799 799 802 806 810 815 819 823 826 829 833 836 839 842 843 844 844 845 846 846 847 847
842 826 814 817 822 826 829 834 830 832 823 819 819 821 799 785 782 785 786 784 786 788 792 795 798 801 805 809 813 817 821 825 828 832 836 839 840 840 840 840 841 842 842 843
829 816 818 822 827 825 836 825 824 828 840 848 819 847 807 784 783 782 783 784 781 781 783 786 791 796 799 803 809 813 817 821 824 828 830 833 833 834 835 837 838 838 838 838
831 824 824 827 826 818 831 823 826 828 838 840 830 843 809 786 785 782 780 777 775 774 776 780 784 788 793 799 804 809 813 817 820 823 826 828 829 830 832 833 833 834 834 834
825 813 817 822 819 819 821 826 830 833 847 861 832 831 810 792 775 773 772 771 769 770 772 774 778 783 788 794 799 804 808 811 815 818 821 823 824 826 828 828 828 829 829 829
825 823 815 814 825 823 826 846 865 856 862 856 819 826 798 764 760 756 758 763 763 765 768 771 775 780 784 788 793 798 803 806 810 814 816 818 820 822 823 824 824 825 825 825
843 840 823 815 822 831 838 843 862 848 855 839 814 823 784 752 744 743 745 750 758 762 763 765 768 773 778 783 788 793 797 801 805 809 812 815 817 818 819 820 821 821 821 821
832 829 815 816 817 817 828 842 829 837 836 843 822 794 763 743 742 747 751 754 757 759 760 761 765 768 773 778 782 787 792 796 800 803 807 810 812 813 814 816 818 818 818 817
813 829 820 821 816 816 822 825 842 850 850 843 823 807 784 760 753 752 755 753 754 755 758 760 762 766 770 773 778 784 788 790 794 799 802 804 806 809 810 813 813 814 814 813
809 821 833 825 830 830 834 835 832 837 844 846 839 805 758 759 753 749 750 748 749 752 754 756 758 761 765 770 774 778 783 786 790 793 796 799 801 804 806 808 809 809 809 808
807 823 840 830 812 812 818 824 826 848 830 836 839 811 751 744 746 745 745 745 746 747 750 752 755 758 762 765 769 772 776 779 782 786 790 792 796 799 801 802 803 805 804 805
803 825 839 830 822 813 815 813 811 817 828 830 843 805 748 745 739 742 746 746 746 746 748 750 753 755 757 759 763 766 769 771 775 780 783 787 790 793 795 797 799 800 800 801
798 817 823 829 811 812 815 810 810 812 834 813 804 790 761 752 745 739 743 743 743 743 744 746 749 749 751 753 755 759 762 765 769 773 776 779 782 785 788 792 794 795 796 796
804 819 812 807 803 801 800 801 805 807 797 805 780 776 761 746 750 741 740 740 741 742 741 741 742 744 745 747 750 753 755 759 762 766 769 771 775 780 783 786 788 790 791 792
804 812 805 803 797 798 797 787 787 788 783 780 776 757 753 749 748 747 743 739 740 736 732 732 734 737 739 739 741 746 747 750 754 758 760 764 769 773 775 779 782 784 786 787
807 810 810 805 797 801 797 762 765 771 765 763 775 740 739 742 741 733 729 734 731 728 727 728 727 726 728 730 731 735 738 743 746 749 753 757 761 766 769 773 777 779 781 782
800 807 811 814 798 809 746 737 739 743 738 737 735 734 730 730 727 723 724 725 724 720 718 717 716 717 718 720 725 727 733 736 738 740 744 748 753 758 763 767 770 772 775 776
781 796 814 808 809 763 744 740 737 743 741 728 733 726 717 717 725 717 716 714 711 709 708 706 705 706 708 712 714 719 724 728 732 732 735 738 744 750 755 759 763 766 768 769
777 776 786 812 806 791 737 719 712 723 735 717 715 714 712 715 735 717 702 701 701 700 699 700 699 699 702 702 705 709 713 718 720 721 725 730 735 741 747 752 756 760 762 764
767 778 776 779 777 758 731 720 716 750 743 703 707 709 708 716 708 695 695 696 694 695 693 693 693 692 690 693 697 701 704 705 705 715 719 724 729 735 741 747 751 754 757 759
766 781 769 770 782 761 716 721 728 723 706 702 700 698 699 700 698 696 693 693 693 693 691 690 689 687 687 689 690 693 694 694 702 707 712 718 724 731 737 742 746 749 752 754
751 738 754 746 724 718 708 715 709 709 711 704 701 693 694 695 694 693 693 692 690 689 688 687 686 684 683 685 686 686 685 692 697 702 707 713 719 725 732 736 741 745 748 749
734 730 735 735 714 714 709 705 704 703 703 697 694 693 692 694 693 692 692 691 689 686 685 684 683 682 680 682 682 682 683 687 691 696 702 708 714 720 727 732 736 739 742 743
780 776 738 714 708 710 706 703 698 696 695 693 688 688 687 688 689 687 688 688 687 685 682 682 681 680 678 679 680 682 683 685 688 693 698 704 710 716 723 728 731 733 736 738
756 757 758 742 729 712 708 701 699 700 695 686 685 683 680 682 682 680 680 679 680 679 678 678 677 676 675 676 678 680 682 684 687 692 697 702 708 714 718 723 727 731 733 734
Wind_Speed
4 3 3 8 7 4 2 2 4 1 3 4 8 10 12 11 9 10 10 10 10 13 21 33 31 32 31 27 30 32 31 28 26 26 25 23 24 21 21 20 20 20 20 20
4 6 7 3 1 2 3 4 6 1 4 3 6 12 12 10 10 16 14 11 11 8 9 21 31 33 34 32 29 32 33 31 29 26 26 24 21 21 23 21 21 20 20 21
6 5 5 1 1 2 3 3 3 3 5 5 3 9 6 7 7 10 11 10 10 12 14 12 22 35 35 34 33 31 33 31 29 27 25 24 23 22 20 20 23 21 20 21
6 4 4 3 2 3 3 1 2 3 4 3 3 5 7 5 8 8 11 11 11 11 10 15 21 28 36 36 34 33 30 30 29 28 28 28 28 27 26 23 20 20 21 23
7 4 2 3 4 2 5 0 2 2 2 4 4 2 8 3 5 10 11 11 11 10 13 15 22 31 39 36 35 33 32 31 30 30 31 30 29 29 25 24 23 21 19 20
8 2 3 7 2 2 2 2 3 2 2 2 6 7 6 5 9 5 6 10 11 10 10 13 26 32 35 36 34 33 34 33 31 31 31 31 31 28 26 24 24 23 21 21
3 5 2 3 3 2 2 5 3 2 1 6 4 4 10 5 8 11 17 13 13 10 10 10 12 20 29 36 36 33 36 34 32 32 31 31 30 27 27 25 24 23 23 23
5 4 8 4 6 6 5 7 5 5 3 4 5 6 7 7 11 9 12 13 10 10 9 10 12 23 29 35 36 35 35 35 32 32 31 29 28 28 27 26 25 26 25 24
3 4 2 4 3 3 3 4 5 1 3 2 4 8 11 3 3 5 10 10 12 10 10 10 11 25 31 34 38 38 35 34 32 31 30 29 28 28 27 24 22 21 19 17
3 1 1 2 1 1 3 2 2 2 3 5 6 5 7 4 6 5 9 13 10 9 9 9 10 22 30 35 37 36 34 34 32 30 29 29 28 26 23 20 19 16 14 14
4 5 1 2 6 8 2 3 3 3 5 5 3 6 5 8 9 12 11 11 12 11 10 10 11 25 31 31 33 34 32 32 30 30 29 28 26 24 21 20 16 14 12 12
7 4 4 11 5 8 6 9 6 5 5 4 4 7 5 5 9 9 10 9 8 8 10 9 12 23 27 31 33 34 33 33 32 30 29 28 25 23 22 21 16 13 13 12
5 2 1 8 5 2 5 6 7 2 3 5 5 6 5 6 5 8 9 8 8 9 9 9 8 13 22 30 33 35 35 34 31 29 30 29 28 26 25 21 16 14 13 12
4 4 7 8 5 4 3 6 8 9 4 8 11 9 11 8 6 4 7 8 10 10 10 9 8 10 22 29 34 35 35 34 33 32 32 32 31 30 27 21 17 14 12 13
5 5 5 7 8 5 7 8 11 16 19 11 7 24 21 21 6 7 5 8 9 10 11 13 13 12 21 26 31 35 36 36 35 35 35 35 34 31 27 23 20 15 13 12
4 5 5 13 11 12 17 17 15 17 20 22 25 32 6 10 8 8 10 8 9 11 14 15 14 13 19 26 30 35 38 40 38 39 40 38 35 33 31 26 22 17 13 12
2 4 3 12 4 8 13 22 21 12 15 16 20 24 17 17 15 20 16 9 11 11 11 11 15 17 26 29 33 35 40 40 41 42 42 41 38 36 33 28 22 18 14 12
7 5 4 3 3 10 10 5 10 19 21 25 25 14 14 17 18 18 10 9 11 13 11 11 14 21 28 33 35 38 36 40 42 42 42 43 41 38 34 29 24 19 15 13
11 6 2 6 8 18 27 11 4 7 10 15 16 21 26 20 6 14 5 10 14 10 10 15 24 29 33 34 43 37 37 40 38 39 41 45 44 41 36 31 26 20 16 14
9 9 10 3 7 10 2 10 19 10 21 10 16 19 20 7 9 12 15 11 11 10 16 16 24 28 28 37 38 37 34 34 36 40 44 45 45 43 39 33 26 19 17 14
12 8 19 15 14 10 7 8 2 7 6 3 5 10 10 8 10 11 3 8 7 8 8 6 12 21 30 35 36 30 31 32 46 37 41 42 43 43 37 29 23 19 16 13
8 7 10 11 9 24 5 2 19 5 4 2 2 2 3 3 5 9 8 7 6 8 10 11 10 13 17 22 31 29 29 46 37 37 39 39 39 36 31 26 21 17 15 12
22 15 4 9 12 8 6 4 5 3 6 15 10 4 3 4 4 4 5 6 6 7 11 12 11 15 18 16 25 24 32 29 31 33 34 35 35 32 29 25 21 18 15 13
7 9 11 5 13 11 15 20 22 9 14 15 8 7 6 7 7 5 5 7 7 7 8 12 11 12 16 15 17 29 26 27 31 32 32 33 34 30 26 22 19 17 16 16
10 17 19 22 21 14 11 11 14 15 9 10 9 8 8 7 8 8 6 7 7 9 14 11 12 14 18 14 16 16 18 25 31 31 31 34 32 29 25 21 20 18 16 15
9 7 9 11 23 15 7 9 9 10 12 11 10 11 6 9 10 9 8 8 7 8 16 13 15 16 18 15 17 17 18 25 29 27 29 30 28 26 23 21 16 13 11 10
Wind_Direction
234 72 247 267 196 221 300 329 307 241 200 180 231 258 258 232 221 215 221 221 212 208 208 200 199 197 195 195 197 199 200 203 205 207 214 223 230 238 244 250 255 257 257 256
340 252 238 168 83 43 2 321 302 338 203 215 271 263 248 236 215 204 206 220 220 204 202 197 195 192 193 196 200 199 204 204 210 218 221 224 235 244 251 257 259 260 260 259
181 242 172 184 315 359 330 253 264 239 321 275 318 293 267 249 198 203 213 207 209 196 195 192 187 190 192 196 199 199 203 207 214 218 220 224 236 245 247 248 251 255 260 262
233 208 162 180 240 168 289 295 343 328 38 257 102 286 302 232 210 199 200 201 212 204 184 183 184 187 194 199 201 206 205 208 215 217 217 219 227 233 241 247 256 261 264 266
251 169 177 226 224 163 219 270 274 286 307 357 300 134 268 157 215 211 213 210 212 206 180 180 183 189 197 200 203 208 211 213 215 216 221 225 230 241 251 256 260 262 264 265
225 185 185 195 105 77 160 334 0 19 90 318 238 165 274 198 209 205 214 215 213 204 192 182 185 189 196 201 203 207 210 213 217 220 223 227 233 239 246 251 257 265 271 273
315 220 165 132 126 18 86 59 336 345 344 230 313 154 250 257 239 195 199 205 209 196 184 175 180 183 190 197 201 205 209 212 214 218 223 228 235 240 247 254 261 270 275 277
188 301 159 196 176 185 179 158 167 233 226 279 338 238 254 237 236 209 185 190 183 190 191 187 180 185 192 196 199 201 205 210 213 217 223 229 236 241 248 257 264 272 278 285
210 250 64 65 23 122 209 187 194 170 301 22 244 284 301 227 53 165 168 161 183 186 186 188 179 184 190 195 200 202 204 209 213 218 223 228 234 239 247 256 265 272 279 286
246 73 41 342 11 239 154 213 85 357 235 253 280 268 239 254 218 188 174 183 191 184 182 184 181 186 192 198 200 203 208 211 214 218 223 228 233 238 245 252 256 264 278 281
196 135 268 64 209 189 115 264 215 165 167 193 288 266 221 234 223 194 201 197 185 184 186 189 189 193 196 199 201 205 210 213 216 218 222 226 230 233 237 240 243 252 270 278
209 158 189 214 246 196 175 189 165 136 253 233 158 273 272 300 224 206 202 199 197 183 186 187 187 191 197 201 205 209 211 212 215 215 217 222 225 226 227 228 233 245 263 276
179 217 337 322 346 345 206 211 207 156 90 223 158 259 291 339 342 207 200 209 202 199 190 191 182 191 196 200 205 209 210 211 211 211 213 217 220 219 220 222 227 239 258 270
93 195 181 195 204 141 198 219 209 193 199 228 232 278 282 296 345 111 219 220 206 201 195 194 191 199 201 202 204 208 211 211 208 208 210 213 215 213 214 216 223 234 251 266
156 230 225 247 255 228 224 217 210 211 224 218 245 238 246 269 248 304 278 234 206 210 200 200 200 203 202 202 206 209 212 210 208 207 209 213 214 212 212 215 220 230 249 267
197 232 216 260 271 281 275 251 230 216 223 239 251 259 244 262 289 285 275 261 242 214 213 208 203 199 204 204 206 211 213 213 209 209 211 213 212 210 212 214 217 227 246 261
236 189 172 255 268 294 279 245 240 217 217 211 230 248 245 253 249 259 262 225 244 229 214 210 212 205 207 208 205 210 214 213 210 210 212 213 212 210 211 212 215 224 240 252
189 172 178 223 131 237 245 247 213 217 226 222 240 251 241 234 246 251 229 228 235 237 228 221 217 214 213 211 210 216 213 213 209 209 211 214 212 211 211 210 213 221 234 243
195 179 233 207 215 275 283 278 207 183 257 229 229 243 252 248 275 261 218 233 240 244 233 230 222 216 218 213 218 210 208 210 206 210 210 213 212 211 209 208 210 217 228 234
184 199 208 152 213 232 328 233 234 218 266 230 217 234 241 221 228 270 242 246 251 245 242 244 245 234 221 220 216 207 205 204 206 212 213 214 212 211 207 208 208 215 224 235
205 199 219 223 238 270 234 293 34 138 242 309 183 248 249 205 219 244 252 237 217 227 242 276 266 234 230 230 217 206 208 207 216 212 215 216 214 212 210 205 206 212 217 227
186 171 216 217 228 253 154 327 228 217 281 268 274 29 59 262 271 255 250 234 238 255 272 274 272 267 258 240 218 212 211 222 216 212 214 214 214 207 201 202 202 206 211 221
235 220 205 203 234 261 266 205 275 313 269 284 284 284 284 270 253 295 289 261 254 268 286 283 273 281 278 260 231 215 224 218 212 208 209 209 201 194 197 197 197 199 207 214
249 253 243 261 246 241 246 254 264 271 258 260 237 229 246 245 269 281 286 287 300 299 282 274 277 272 276 264 242 234 229 217 204 198 198 196 188 187 192 197 200 201 205 211
277 323 288 261 260 277 270 251 251 269 263 265 272 216 221 227 242 232 240 245 254 264 278 265 262 269 272 261 241 237 230 204 194 193 191 187 187 186 187 197 202 208 218 221
242 247 285 287 305 284 302 314 308 291 270 248 243 275 251 215 236 232 238 246 253 251 266 252 251 251 254 240 229 225 214 201 192 179 178 183 182 184 188 190 194 205 223 217